Preview of NWS' New Version of Forecast
This preview is not operational and should not be used for support decisions.
Latest weather observations around

Everett Snohomish County (KPAE)

Using English Units (Switch to International System of Units)
Date/ Time (PST) Wind (mph) Vis. (mi) Weather Sky Cond. Temp (°F) Rel. Humidity Wind Chill (°F) Heat Index (°F) Pressure Precip. (in)
Air Dwpt 6 hour Altimeter (inHg) Sea level (inHg) 1 hr 3 hr 6 hr
Max Min
Feb 19 06:53 SE 6 4 Cloudy FEW002 OVC044 36 35     96% 31   30.2 30.22   0  
Feb 19 06:22 SE 11 6 Fog/Mist SCT002 BKN038 OVC046 36 35     96% 28   30.2        
Feb 19 05:53 SE 13 10 Cloudy BKN040 OVC050 37 35     92% 29   30.21 30.23 0    
Feb 19 05:19 SE 13 5 Light Rain and Fog/Mist FEW012 OVC032 36 35     96% 27   30.23   0    
Feb 19 05:12 SE 13 2.5 Light Rain and Fog/Mist SCT012 OVC030 36 34     92% 27   30.24   0    
Feb 19 04:53 SE 5 10 Cloudy OVC011 37 35     92% 33   30.24 30.26 0    
Feb 19 03:53 3 6 Clear   36 35     96% 33   30.26 30.27 0    
Feb 19 03:40 3 7 Light Rain FEW008 OVC013 36 35     96% 33   30.26   0    
Feb 19 03:17 SE 7 10 Cloudy BKN011 OVC031 37 35     92% 32   30.26        
Feb 19 03:09 ESE 6 10 Cloudy SCT009 OVC032 37 35     92% 32   30.27        
Feb 19 02:53 ESE 6 10 Cloudy OVC032 37 35     92% 32   30.27 30.28 0    
Feb 19 01:53 ESE 7 7 Light Rain OVC036 36 34     92% 30   30.29 30.3 0    
Feb 19 01:36 3 10 Cloudy SCT022 BKN034 OVC055 36 33     89% 33   30.29   0    
Feb 19 00:53 E 3 10 Light Rain BKN025 OVC039 36 33     89% 33   30.29 30.3 0 0  
Feb 19 00:32 E 5 10 Cloudy BKN026 OVC034 37 32     82% 33   30.29        
Feb 18 23:53 E 5 10 Cloudy OVC036 37 32     82% 33   30.29 30.31      
Feb 18 22:53 E 6 10 Cloudy FEW039 OVC060 37 32     82% 32   30.31 30.32      
Feb 18 21:53 E 5 10 Cloudy BKN037 OVC060 37 33     85% 33   30.33 30.35     0
Feb 18 20:53 Calm 10 Cloudy OVC047 37 34     89%     30.32 30.34 0    
Feb 18 19:53 E 5 8 Light Rain OVC033 38 34     85% 34   30.33 30.35 0    
Feb 18 19:06 E 3 10 Cloudy SCT029 BKN040 OVC055 38 35     89% 36   30.34   0    
Feb 18 18:53 E 5 10 Light Rain BKN029 OVC042 38 35     89% 34   30.35 30.36 0 0  
Feb 18 17:53 Calm 10 Cloudy SCT018 OVC040 38 35     89%     30.34 30.36 0    
Feb 18 16:53 E 5 9 Cloudy OVC034 38 35     89% 34   30.34 30.35 0    
Feb 18 15:53 ENE 5 8 Light Rain BKN032 OVC041 38 34     85% 34   30.35 30.36 0   0
Feb 18 15:39 ENE 6 7 Light Rain FEW016 BKN029 OVC036 38 34     85% 33   30.35   0    
Feb 18 14:53 E 5 10 Cloudy FEW018 OVC034 38 32     79% 34   30.36 30.37      
Feb 18 14:22 E 6 10 Cloudy SCT014 OVC038 39 33     79% 35   30.36        
Feb 18 13:58 5 10 Cloudy BKN013 OVC020 38 34     85% 34   30.37        
Feb 18 13:53 ESE 5 10 Cloudy SCT018 BKN049 OVC055 39 34     82% 36   30.37 30.38      
Feb 18 12:53 ENE 3 10 Cloudy SCT018 BKN049 OVC055 39 34     82% 37   30.38 30.39      
Feb 18 12:00 E 3 9 Cloudy OVC055 39 34     82% 37   30.4        
Feb 18 11:53 Calm 10 Cloudy BKN006 OVC050 38 34     85%     30.39 30.41      
Feb 18 11:35 Calm 8 Mostly Cloudy BKN006 38 35     89%     30.4        
Feb 18 10:53 Calm 7 Cloudy SCT012 OVC044 37 35     92%     30.4 30.41      
Feb 18 10:00 ESE 3 7 Fog OVC045 36 34     92% 33   30.39        
Feb 18 09:53 Calm 0.5 Fog OVC045 36 34     92%     30.39 30.41      
Feb 18 08:53 Calm 0.5 Fog OVC047 34 33     96%     30.39 30.4      
Feb 18 08:22 E 3 0.5 Fog BKN047 BKN060 33 32     96% 30   30.38        
Feb 18 07:53 SE 3 6 Patchy Fog and Fog/Mist SCT013 BKN049 33 31     92% 30   30.37 30.39      
Feb 18 06:53 ESE 5 7 Patchy Fog and Fog/Mist BKN048 33 31     92% 29   30.37 30.39      
Feb 18 05:53 Calm 6 Fog/Mist OVC050 33 33     100%     30.36 30.38      
Feb 18 05:19 ESE 3 3 Fog/Mist FEW001 OVC050 33 33     100% 30   30.36        
Feb 18 05:10 ESE 3 1.75 Fog/Mist FEW001 OVC050 33 32     96% 30   30.35        
Feb 18 04:53 ESE 5 2.5 Fog/Mist FEW001 SCT024 OVC050 33 32     96% 29   30.35 30.37      
Feb 18 04:50 ESE 5 3 Fog/Mist FEW001 SCT024 OVC050 34 32     93% 29   30.35        
Feb 18 03:53 ESE 3 6 Fog/Mist BKN026 BKN055 33 31     92% 30   30.34 30.36      
Feb 18 02:53 ESE 5 9 Partly Cloudy SCT024 33 31     92% 29   30.34 30.36      
Feb 18 02:15 ESE 3 10 Mostly Cloudy BKN024 BKN060 34 31     88% 31   30.34        
Feb 18 01:53 SE 3 10 Clear CLR 33 30     88% 30   30.34 30.36      
Feb 18 01:17 Calm 10 Clear   34 31     88%     30.34        
Feb 18 00:53 SSE 3 10 Clear   34 30     85% 31   30.34 30.35      
Feb 17 23:53 Calm 10 Cloudy OVC026 35 31     85%     30.33 30.34      
Feb 17 22:53 E 3 10 Cloudy OVC028 35 30     82% 32   30.31 30.33      
Feb 17 22:44 Calm 10 Mostly Cloudy BKN028 BKN110 34 30     85%     30.31        
Feb 17 21:53 Calm 10 Cloudy OVC110 34 29     82%     30.3 30.32      
Feb 17 20:53 Calm 10 Clear CLR 35 31     85%     30.28 30.3      
Feb 17 19:53 Calm 10 Clear CLR 35 30     82%     30.28 30.29      
Feb 17 18:53 Calm 10 Clear CLR 36 30     79%     30.26 30.28      
Feb 17 17:53 NW 5 10 Mostly Cloudy BKN110 39 31     72% 36   30.24 30.26      
Feb 17 16:53 WNW 7 10 Mostly Clear FEW110 41 32     70% 36   30.23 30.24      
Feb 17 15:53 NW 8 10 Mostly Cloudy FEW033 BKN110 42 31     64% 37   30.21 30.23      
Feb 17 14:53 WNW 10 10 Mostly Cloudy BKN033 42 31     64% 36   30.2 30.22      
Feb 17 13:53 NW 7 10 Mostly Cloudy SCT013 BKN033 41 30     65% 36   30.19 30.2      
Feb 17 12:53 NNW 8 10 Mostly Cloudy SCT013 BKN030 41 33     73% 36   30.18 30.2      
Feb 17 11:53 NW 6 10 Cloudy OVC008 39 34     82% 35   30.18 30.19      
Feb 17 10:53 5 10 Cloudy BKN004 OVC036 39 37     93% 36   30.17 30.18      
Feb 17 10:48 5 10 Cloudy BKN004 OVC036 39 37     93% 36   30.17        
Feb 17 10:20 NW 3 9 Cloudy OVC005 38 36     92% 36   30.16        
Feb 17 10:05 NW 3 9 Cloudy BKN004 OVC013 37 35     92% 35   30.15        
Feb 17 10:00 NNW 3 9 Cloudy SCT004 OVC016 37 36     96% 35   30.15        
Feb 17 09:53 WNW 3 9 Mostly Cloudy BKN006 37 36     96% 35   30.15 30.16      
Feb 17 08:53 Calm 10 Cloudy OVC006 36 34     92%     30.13 30.14      
Feb 17 07:53 Calm 7 Cloudy OVC009 35 34     96%     30.1 30.11      
Feb 17 07:41 Calm 9 Cloudy BKN009 OVC039 35 34     96%     30.09        
Feb 17 06:53 Calm 8 Cloudy SCT004 OVC011 34 34     100%     30.07 30.09      
Feb 17 05:53 Calm 6 Fog/Mist FEW002 BKN012 OVC060 34 33     96%     30.05 30.06      
Feb 17 05:09 E 3 6 Fog/Mist FEW002 BKN011 OVC060 35 33     92% 32   30.03        
Feb 17 04:53 Calm 7 Cloudy FEW012 OVC060 35 33     92%     30.03 30.04      
Feb 17 03:53 SE 6 8 Mostly Cloudy BKN060 35 34     96% 30   30 30.01     0
Feb 17 03:33 ESE 6 8 Cloudy SCT002 BKN050 OVC065 35 34     96% 30   30        
Feb 17 02:53 SE 6 6 Fog/Mist OVC002 35 34     96% 30   29.99 30.01      
Feb 17 01:53 SE 6 9 Cloudy OVC003 36 35     96% 31   29.97 29.99      
Feb 17 01:08 3 5 Fog/Mist BKN002 BKN006 OVC010 36 35     96% 33   29.96        
Feb 17 00:53 ESE 6 5 Fog/Mist SCT002 BKN006 OVC026 36 34     92% 31   29.96 29.97 0 0  
Feb 17 00:48 ESE 6 5 Fog/Mist BKN002 BKN010 OVC070 36 34     93% 31   29.96   0    
Feb 17 00:37 3 6 Fog/Mist SCT002 BKN027 OVC070 36 35     96% 33   29.95   0    
Feb 16 23:53 Calm 5 Light Rain and Fog/Mist FEW021 BKN033 OVC040 36 35     96%     29.94 29.96 0    
Feb 16 23:34 Calm 4 Light Rain and Fog/Mist BKN016 OVC029 36 35     96%     29.94   0    
Feb 16 23:24 Calm 5 Light Rain and Fog/Mist BKN014 OVC019 36 35     96%     29.94   0    
Feb 16 23:09 ESE 3 8 Light Rain OVC015 35 34     96% 32   29.93   0    
Feb 16 22:53 SE 5 9 Light Rain OVC014 35 34     96% 31   29.93 29.94 0    
Feb 16 21:53 SE 6 7 Clear   35 34     96% 30   29.92 29.93 0    
Feb 16 21:39 SE 8 6 Light Rain and Fog/Mist BKN012 OVC018 35 34     96% 29   29.91   0    
Feb 16 21:22 SE 7 8 Light Rain FEW003 SCT010 OVC016 36 35     96% 30   29.9   0    
Feb 16 21:09 SE 7 6 Unknown Precipitation and Fog/Mist SCT003 BKN008 OVC018 36 34     92% 30   29.9   0    
Feb 16 21:00 SE 5 8 Unknown Precipitation BKN003 BKN008 OVC022 37 35     92% 33   29.9   0    
Feb 16 20:53 SE 5 8 Light Rain BKN007 OVC014 37 35     92% 33   29.9 29.91 0    
Feb 16 19:53 Calm 10 Cloudy BKN007 OVC011 37 35     92%     29.88 29.89 0    
Feb 16 18:53 Calm 5 Fog/Mist BKN007 OVC011 38 34     85%     29.87 29.88 0 0  
Feb 16 17:53 N 3 5 Light Rain BKN007 OVC011 39 33     79% 37   29.86 29.87 0    
Feb 16 16:53 N 6 4 Light Rain and Fog/Mist BKN005 OVC011 37 36     96% 32   29.85 29.86 0    
Feb 16 15:53 W 3 5 Light Rain and Fog/Mist BKN005 OVC011 38 36     92% 36   29.85 29.86 0   0
Feb 16 15:02 Calm 7 Light Rain BKN004 BKN014 OVC024 39 36     89%     29.84   0    
Feb 16 15:00 Calm 7 Light Rain BKN016 OVC024 39 36     89%     29.84   0    
Feb 16 14:53 Calm 3 Light Rain and Fog/Mist BKN005 BKN011 OVC020 39 37     93%     29.84 29.85 0    
Feb 16 14:00 SSE 6 3 Light Rain and Fog/Mist BKN005 BKN011 OVC020 38 36     92% 33   29.84   0    
Feb 16 13:53 SSE 5 2 Light Rain and Fog/Mist BKN005 BKN011 OVC020 38 36     92% 34   29.84 29.85 0    
Feb 16 12:53 SSE 7 2 Fog/Mist BKN005 BKN011 OVC020 38 37     97% 33   29.84 29.85 0 0  
Feb 16 11:53 Calm 2 Light Rain and Fog/Mist BKN005 BKN011 OVC020 39 38     96%     29.84 29.85 0    
Feb 16 10:59 SE 3 1 Light Rain and Fog/Mist BKN007 BKN024 OVC031 38 37     97% 36   29.83   0    
Feb 16 10:53 SE 3 3 Light Rain and Fog/Mist BKN004 OVC014 38 37     97% 36   29.83 29.85 0    
Feb 16 10:05 Calm 3 Light Rain and Fog/Mist BKN004 OVC014 38 37     97%     29.83   0    
Feb 16 09:53 Calm 3 Light Rain and Fog/Mist BKN005 OVC023 38 37     97%     29.82 29.83 0   0
Feb 16 09:28 SSE 3 6 Light Rain and Fog/Mist BKN005 OVC023 37 36     96% 35   29.82   0    
Feb 16 09:17 SSE 5 9 Light Rain SCT003 OVC023 37 36     96% 33   29.82   0    
Feb 16 08:53 SE 3 10 Cloudy OVC022 37 35     92% 35   29.81 29.83      
Feb 16 07:53 Calm 10 Mostly Cloudy BKN025 BKN033 BKN044 36 34     92%     29.8 29.81      
May 14 07:53 SE 3 10 Clear CLR 65 53     65%     29.97 29.96      
Notice The following observation data may not be complete
May 14 05:53 ESE 3 10 Clear CLR   51      %     29.96 29.95      
May 14 02:53 E 8 10 Clear CLR 63 52     67%     29.94 29.93      
May 13 04:53 NNW 7 10 Clear CLR 55 50     83%     29.97 29.97      
May 12 08:17 NNW 5 1.5 Fog/Mist SCT001 51 50     96%     30.19        
May 12 02:53 NNW 5 10 Clear CLR 50 48     93% 48   30.2 30.19      
May 12 01:53 NNW 5 10 Clear CLR 50 47     89% 48   30.2 30.2      
May 11 18:53 NW 6 10 Clear CLR 63 47     56%     30.21 30.21      
Jun 11 21:53 5 10 Clear CLR 56 49     77%     30 30      
Jun 11 20:53 NW 5 10 Clear   58 48     70%     30 29.99      
Jun 11 19:53 NW 6 10 Clear   63 45     52%     30 29.99      
Jun 11 11:53 WSW 7 10 Clear CLR 59 51     75%     30.05 30.05      
Jun 10 23:53 N 6 10 Clear   54 48     80%     29.95 29.95      
Jun 10 16:53 NW 7 10 Clear CLR 61 43     52%     29.87 29.87      
Notice The following observation data may not be complete
Jun 10 02:39   10 Cloudy BKN015 OVC080          %              
Jun 10 01:48   10 Cloudy FEW016 BKN070 OVC085 52 46     82%     29.87        
Jun 09 11:10 Calm 10 Cloudy FEW025 BKN031 OVC080 55 46     72%     29.89        
Jun 09 06:53 ESE 9 10 Cloudy OVC055 50 46     86% 46   29.91 29.91      
Jun 09 02:53 SSE 8 10 Mostly Cloudy BKN070 51 45     79%     29.95 29.94      
Jun 08 07:29 SSE 8 8 Light Rain SCT004 BKN009 BKN045 56 54     93%     29.64   0    
Jun 06 05:53 WNW 3 10 Clear CLR 52 48     86%     30.03 30.02      
Jun 05 22:53 5 10 Clear CLR 53 47     80%     30.08 30.08      
Jun 05 18:53 NW 7 10 Clear CLR 65 47     52%     30.07 30.07